{"data":{"norad_id":53561,"epoch":"2026-05-25T02:08:11.751360Z","epoch_age_seconds":67123,"freshness":"FRESH","line1":"1 53561U 22101AL  26145.08902490  .00000666  00000+0  59952-4 0  9997","line2":"2 53561  53.2152  81.1481 0001368  86.6509 273.4640 15.08841501207845","mean_motion":15.08841501,"eccentricity":0.0001368,"inclination_deg":53.2152,"raan_deg":81.1481,"arg_perigee_deg":86.6509,"mean_anomaly_deg":273.464,"bstar":5.9952e-5,"rev_number":20784,"period_min":95.437459736203,"perigee_km":538.79243560181,"apogee_km":540.68516642097,"semimajor_km":6917.8758010114,"source":"CELESTRAK","updated_at":"2026-05-25T13:38:17.446648Z"}}